Back to catalog

ANIK F1

AliveCommunicationsGEO
NORAD 26624·PAYLOAD·🇨🇦 Canada

Launched Nov 21, 2000 from Guiana Space Centre

Loading…

TLE

FreshSource: Space-Track

Epoch: Sep 14, 2026, 08:34 UTC

1 26624U 00076A   26257.35749172 -.00000236  00000-0  00000-0 0  9995
2 26624   5.4216  73.6817 0010141 177.4464 211.8009  0.98960226 43956

Track ANIK F1 in real time with AllMySat

Download on the App Store